TimeEST,TemperatureF,Dew PointF,Humidity,Sea Level PressureIn,VisibilityMPH,Wind Direction,Wind SpeedMPH,Gust SpeedMPH,PrecipitationIn,Events,Conditions,WindDirDegrees,DateUTC
12:15 AM,39.2,39.2,100,30.28,0.5,SSE,4.6,-,N/A,Rain,Light Rain,150,2014-01-11 05:15:00
12:35 AM,39.2,39.2,100,30.27,0.2,South,3.5,-,N/A,Fog,Fog,170,2014-01-11 05:35:00
12:55 AM,39.2,39.2,100,30.26,0.2,South,5.8,-,N/A,Rain,Light Rain,170,2014-01-11 05:55:00
1:15 AM,41.0,39.2,93,30.26,0.2,South,5.8,-,N/A,Rain,Light Rain,170,2014-01-11 06:15:00
1:35 AM,41.0,41.0,100,30.25,0.2,SSE,5.8,-,N/A,Fog,Fog,160,2014-01-11 06:35:00
1:55 AM,41.0,41.0,100,30.26,0.2,South,5.8,-,N/A,Fog,Fog,180,2014-01-11 06:55:00
2:15 AM,41.0,41.0,100,30.25,0.2,SSE,5.8,-,N/A,Fog,Fog,160,2014-01-11 07:15:00
2:35 AM,42.8,41.0,93,30.23,0.2,SSE,5.8,-,N/A,Fog,Fog,150,2014-01-11 07:35:00
2:55 AM,42.8,41.0,93,30.23,0.2,SSE,6.9,-,N/A,Fog,Fog,160,2014-01-11 07:55:00
3:15 AM,42.8,41.0,93,30.22,0.2,SSE,6.9,-,N/A,Fog,Fog,160,2014-01-11 08:15:00
3:35 AM,41.0,41.0,100,30.20,0.2,SSE,9.2,-,N/A,Fog,Fog,150,2014-01-11 08:35:00
3:55 AM,41.0,41.0,100,30.19,0.2,SSE,6.9,-,N/A,Fog,Fog,160,2014-01-11 08:55:00
4:15 AM,41.0,41.0,100,30.19,0.2,South,6.9,-,N/A,Fog,Fog,170,2014-01-11 09:15:00
4:35 AM,42.8,42.8,100,30.17,1.5,South,6.9,-,N/A,,Overcast,180,2014-01-11 09:35:00
4:55 AM,44.6,44.6,100,30.16,9.0,SSE,8.1,-,N/A,,Overcast,160,2014-01-11 09:55:00
5:15 AM,44.6,44.6,100,30.15,7.0,South,10.4,-,N/A,,Overcast,180,2014-01-11 10:15:00
5:35 AM,44.6,44.6,100,30.14,4.0,South,8.1,-,N/A,Rain,Light Rain,180,2014-01-11 10:35:00
5:55 AM,44.6,44.6,100,30.13,10.0,South,11.5,-,N/A,,Overcast,180,2014-01-11 10:55:00
6:15 AM,44.6,44.6,100,30.12,10.0,South,12.7,-,N/A,,Unknown,180,2014-01-11 11:15:00
6:35 AM,46.4,46.4,100,30.11,10.0,South,12.7,18.4,N/A,,Overcast,190,2014-01-11 11:35:00
6:55 AM,46.4,46.4,100,30.10,10.0,South,11.5,-,N/A,,Overcast,180,2014-01-11 11:55:00
7:15 AM,46.4,46.4,100,30.09,10.0,South,12.7,19.6,N/A,,Overcast,180,2014-01-11 12:15:00
7:35 AM,46.4,46.4,100,30.08,10.0,South,13.8,19.6,N/A,,Overcast,180,2014-01-11 12:35:00
7:55 AM,44.6,44.6,100,30.07,9.0,South,13.8,18.4,N/A,,Overcast,180,2014-01-11 12:55:00
8:15 AM,46.4,46.4,100,30.05,9.0,South,15.0,-,N/A,,Mostly Cloudy,170,2014-01-11 13:15:00
8:35 AM,46.4,46.4,100,30.04,9.0,South,16.1,23.0,N/A,,Mostly Cloudy,180,2014-01-11 13:35:00
8:55 AM,48.2,46.4,93,30.03,9.0,South,17.3,21.9,N/A,,Mostly Cloudy,180,2014-01-11 13:55:00
9:15 AM,48.2,46.4,93,30.02,9.0,South,15.0,23.0,N/A,,Overcast,180,2014-01-11 14:15:00
9:35 AM,48.2,48.2,100,29.99,8.0,South,17.3,26.5,N/A,,Mostly Cloudy,180,2014-01-11 14:35:00
9:55 AM,50.0,48.2,94,29.98,7.0,South,17.3,29.9,N/A,,Overcast,190,2014-01-11 14:55:00
10:15 AM,50.0,48.2,94,29.96,7.0,South,23.0,28.8,N/A,,Overcast,180,2014-01-11 15:15:00
10:35 AM,50.0,50.0,100,29.94,6.0,South,19.6,34.5,N/A,,Overcast,180,2014-01-11 15:35:00
10:55 AM,50.0,48.2,94,29.92,6.0,South,19.6,28.8,N/A,,Overcast,190,2014-01-11 15:55:00
11:15 AM,50.0,50.0,100,29.90,8.0,South,19.6,25.3,N/A,,Overcast,180,2014-01-11 16:15:00
11:35 AM,51.8,50.0,94,29.87,8.0,South,21.9,29.9,N/A,,Mostly Cloudy,190,2014-01-11 16:35:00
11:55 AM,53.6,50.0,88,29.85,8.0,South,23.0,31.1,N/A,,Partly Cloudy,190,2014-01-11 16:55:00
12:15 PM,53.6,50.0,88,29.83,7.0,South,20.7,28.8,N/A,,Mostly Cloudy,180,2014-01-11 17:15:00
12:35 PM,55.4,51.8,88,29.81,8.0,South,20.7,29.9,N/A,,Overcast,190,2014-01-11 17:35:00
12:55 PM,55.4,53.6,94,29.80,8.0,South,24.2,32.2,N/A,,Overcast,190,2014-01-11 17:55:00
1:15 PM,53.6,51.8,94,29.77,5.0,South,23.0,34.5,N/A,Rain,Light Rain,180,2014-01-11 18:15:00
1:35 PM,53.6,50.0,88,29.73,4.0,South,24.2,39.1,N/A,,Overcast,180,2014-01-11 18:35:00
1:55 PM,51.8,50.0,94,29.72,3.0,South,29.9,46.0,N/A,,Overcast,180,2014-01-11 18:55:00
2:15 PM,53.6,53.6,100,29.70,3.0,South,27.6,38.0,N/A,,Overcast,180,2014-01-11 19:15:00
2:35 PM,53.6,53.6,100,29.68,1.8,South,27.6,41.4,N/A,,Overcast,180,2014-01-11 19:35:00
2:55 PM,53.6,53.6,100,29.68,1.2,South,25.3,39.1,N/A,,Overcast,190,2014-01-11 19:55:00
3:15 PM,55.4,53.6,94,29.65,2.0,South,26.5,34.5,N/A,,Overcast,190,2014-01-11 20:15:00
3:35 PM,53.6,51.8,94,29.64,2.5,South,26.5,38.0,N/A,,Overcast,180,2014-01-11 20:35:00
3:55 PM,51.8,50.0,94,29.62,0.5,South,21.9,31.1,N/A,Fog-Thunderstorm,Fog,190,2014-01-11 20:55:00
4:15 PM,53.6,53.6,100,29.60,0.2,South,21.9,33.4,N/A,Fog-Thunderstorm,Fog,180,2014-01-11 21:15:00
4:35 PM,53.6,53.6,100,29.59,5.0,South,17.3,28.8,N/A,,Overcast,190,2014-01-11 21:35:00
4:55 PM,55.4,55.4,100,29.57,5.0,South,24.2,32.2,N/A,,Overcast,190,2014-01-11 21:55:00
5:15 PM,55.4,55.4,100,29.55,5.0,SSW,27.6,39.1,N/A,Thunderstorm,Overcast,200,2014-01-11 22:15:00
5:35 PM,57.2,57.2,100,29.52,4.0,SSW,27.6,43.7,N/A,,Overcast,200,2014-01-11 22:35:00
5:55 PM,57.2,57.2,100,29.52,3.0,SSW,29.9,40.3,N/A,,Overcast,200,2014-01-11 22:55:00
6:15 PM,57.2,57.2,100,29.49,3.0,SSW,27.6,39.1,N/A,,Overcast,200,2014-01-11 23:15:00
6:35 PM,57.2,57.2,100,29.48,6.0,SSW,27.6,39.1,N/A,,Overcast,200,2014-01-11 23:35:00
6:55 PM,57.2,57.2,100,29.45,5.0,SSW,32.2,47.2,N/A,,Overcast,200,2014-01-11 23:55:00
7:15 PM,57.2,57.2,100,29.43,8.0,SSW,39.1,56.4,N/A,,Overcast,200,2014-01-12 00:15:00
7:35 PM,57.2,57.2,100,29.41,5.0,SSW,32.2,42.6,N/A,,Overcast,200,2014-01-12 00:35:00
7:55 PM,57.2,57.2,100,29.39,3.0,South,35.7,51.8,0.05,Rain,Light Rain,190,2014-01-12 00:55:00
8:15 PM,57.2,57.2,100,29.38,5.0,South,34.5,50.6,N/A,,Overcast,190,2014-01-12 01:15:00
8:35 PM,59.0,57.2,94,29.44,1.5,WSW,36.8,50.6,0.01,Rain,Light Rain,250,2014-01-12 01:35:00
8:55 PM,53.6,53.6,100,29.44,5.0,WSW,21.9,31.1,0.01,Rain,Light Rain,240,2014-01-12 01:55:00
9:15 PM,53.6,53.6,100,29.43,10.0,WSW,17.3,26.5,N/A,,Overcast,240,2014-01-12 02:15:00
9:35 PM,53.6,51.8,94,29.43,9.0,WSW,16.1,21.9,N/A,Rain,Light Rain,240,2014-01-12 02:35:00
9:55 PM,51.8,51.8,100,29.43,7.0,WSW,13.8,20.7,N/A,Rain,Light Rain,240,2014-01-12 02:55:00
10:15 PM,51.8,50.0,94,29.44,4.0,WSW,15.0,23.0,0.01,Rain,Light Rain,240,2014-01-12 03:15:00
10:35 PM,51.8,51.8,100,29.43,10.0,SW,13.8,20.7,0.02,Rain,Light Rain,230,2014-01-12 03:35:00
10:55 PM,50.0,50.0,100,29.40,10.0,SSW,6.9,-,0.02,,Overcast,210,2014-01-12 03:55:00
11:15 PM,48.2,48.2,100,29.38,7.0,South,11.5,-,N/A,Rain,Light Rain,190,2014-01-12 04:15:00
11:35 PM,48.2,48.2,100,29.37,4.0,South,12.7,-,N/A,,Overcast,180,2014-01-12 04:35:00
11:55 PM,48.2,48.2,100,29.36,0.8,SSW,11.5,-,N/A,,Overcast,200,2014-01-12 04:55:00